Pamplona, Spain

3:57 PM CEST on June 25, 2017 (GMT +0200)
Pamplona

Weather History for LEPP - November, 2011

Change the Weather History Date:

Thursday, November 3, 2011

  Actual Average Record
Temperature  
Mean Temperature 56 °F -  
Max Temperature 62 °F 51 °F 71 °F (2016)
Min Temperature 51 °F 40 °F 35 °F (2007)
Degree Days  
Heating Degree Days 8    
Growing Degree Days 6 (Base 50)    
Moisture  
Dew Point 50 °F    
Average Humidity 75    
Maximum Humidity 94    
Minimum Humidity 67    
Precipitation  
Precipitation 0.00 in - - ()
Sea Level Pressure  
Sea Level Pressure 29.48 in    
Wind  
Wind Speed 18 mph ()    
Max Wind Speed 33 mph    
Max Gust Speed 53 mph    
Visibility 5.7 miles    
Events Rain    
Averages and records for this station are not official NWS values.
T = Trace of Precipitation, MM = Missing Value Source: Averaged Metar Reports

Daily Weather History Graph

Daily Weather History Graph

Search for Another Location

Airport or City:

Trip Planner

Search our weather history database for the weather conditions in past years. The results will help you decide how hot, cold, wet, or windy it might be!

Date:

Astronomy

Nov. 03, 2011 Rise Set
Actual Time 7:42 AM CET 5:57 PM CET
Civil Twilight 7:12 AM CET 6:26 PM CET
Nautical Twilight 6:39 AM CET 7:00 PM CET
Astronomical Twilight 6:06 AM CET 7:32 PM CET
Moon 2:22 PM CET (11/3) 12:30 AM CET (11/3)
Length of Visible Light 11h 13m
Length of Day
10h 14m
First Quarter, 58% of the Moon is Illuminated
Nov 3
First Quarter
Nov 10
Full
Nov 18
Last Quarter
Nov 25
New
Dec 2
First Quarter

Hourly Weather History & Observations

Time (CET) Temp. Dew Point Humidity Pressure Visibility Wind Dir Wind Speed Gust Speed Precip Events Conditions
12:00 AM 60.8 °F 53.6 °F 77% 29.59 in 5.0 mi SE 25.3 mph 39.1 mph N/A Rain Rain
5:30 AM 62.6 °F 51.8 °F 68% 29.50 in 6.2 mi SSE 29.9 mph 47.2 mph N/A   Scattered Clouds
6:00 AM 62.6 °F 51.8 °F 68% 29.50 in 6.2 mi SSE 28.8 mph 43.7 mph N/A   Scattered Clouds
6:30 AM 62.6 °F 51.8 °F 68% 29.50 in 6.2 mi SSE 26.5 mph 40.3 mph N/A   Scattered Clouds
7:00 AM 62.6 °F 51.8 °F 68% 29.50 in 6.2 mi SSE 24.2 mph 39.1 mph N/A   Scattered Clouds
7:30 AM 62.6 °F 51.8 °F 68% 29.50 in 6.2 mi SSE 23.0 mph 34.5 mph N/A   Scattered Clouds
8:00 AM 62.6 °F 51.8 °F 68% 29.50 in 6.2 mi SSE 23.0 mph 34.5 mph N/A   Scattered Clouds
8:30 AM 62.6 °F 51.8 °F 68% 29.50 in 6.2 mi SSE 25.3 mph 36.8 mph N/A   Scattered Clouds
9:00 AM 60.8 °F 53.6 °F 77% 29.50 in 6.2 mi SSE 27.6 mph 41.4 mph N/A   Scattered Clouds
9:30 AM 59.0 °F 55.4 °F 88% 29.50 in 5.6 mi SSE 18.4 mph - N/A Rain Rain
10:00 AM 60.8 °F 53.6 °F 77% 29.50 in 5.0 mi SSE 13.8 mph - N/A Rain Rain
10:30 AM 59.0 °F 55.4 °F 88% 29.50 in 3.7 mi SSE 15.0 mph 34.5 mph N/A Rain Rain
11:00 AM 59.0 °F 53.6 °F 82% 29.50 in 5.0 mi South 23.0 mph 35.7 mph N/A Rain Rain
11:30 AM 59.0 °F 53.6 °F 82% 29.47 in 3.7 mi SSW 13.8 mph - N/A Rain Rain
12:00 PM 57.2 °F 53.6 °F 88% 29.47 in 3.7 mi South 13.8 mph - N/A Rain Rain
12:30 PM 57.2 °F 51.8 °F 82% 29.47 in 6.2 mi South 9.2 mph - N/A Rain Rain
1:00 PM 57.2 °F 51.8 °F 82% 29.44 in 5.0 mi South 11.5 mph - N/A Rain Rain
1:30 PM 57.2 °F 50.0 °F 77% 29.44 in 6.2 mi SSE 11.5 mph - N/A   Scattered Clouds
2:00 PM 59.0 °F 50.0 °F 72% 29.42 in 6.2 mi South 16.1 mph 28.8 mph N/A   Scattered Clouds
2:30 PM 60.8 °F 51.8 °F 72% 29.42 in 6.2 mi SSE 17.3 mph - N/A   Scattered Clouds
3:00 PM 59.0 °F 50.0 °F 72% 29.42 in 6.2 mi South 21.9 mph 36.8 mph N/A   Scattered Clouds
3:09 PM 55.4 °F 48.2 °F 77% 29.44 in 1.2 mi SW 33.4 mph 52.9 mph N/A Rain Rain Showers
3:22 PM 51.8 °F 48.2 °F 88% 29.44 in 3.7 mi WSW 13.8 mph 27.6 mph N/A Rain Rain Showers
3:30 PM 51.8 °F 50.0 °F 94% 29.42 in 6.2 mi SW 5.8 mph - N/A Rain Light Rain
4:00 PM 55.4 °F 50.0 °F 82% 29.44 in 6.2 mi South 9.2 mph - N/A   Partly Cloudy
4:30 PM 57.2 °F 50.0 °F 77% 29.44 in 6.2 mi SSW 8.1 mph - N/A   Partly Cloudy
5:00 PM 55.4 °F 50.0 °F 82% 29.44 in 6.2 mi South 6.9 mph - N/A   Partly Cloudy
5:30 PM 57.2 °F 50.0 °F 77% 29.44 in 6.2 mi South 9.2 mph - N/A   Partly Cloudy
6:00 PM 55.4 °F 46.4 °F 72% 29.47 in 6.2 mi South 9.2 mph - N/A   Partly Cloudy
6:30 PM 55.4 °F 46.4 °F 72% 29.47 in 6.2 mi South 13.8 mph - N/A   Partly Cloudy
7:00 PM 55.4 °F 48.2 °F 77% 29.47 in 6.2 mi South 15.0 mph - N/A   Partly Cloudy
7:30 PM 55.4 °F 46.4 °F 72% 29.47 in 6.2 mi SSE 13.8 mph - N/A   Partly Cloudy
8:00 PM 57.2 °F 46.4 °F 67% 29.50 in 6.2 mi South 13.8 mph - N/A   Scattered Clouds
8:30 PM 55.4 °F 46.4 °F 72% 29.50 in 6.2 mi South 16.1 mph - N/A   Scattered Clouds
9:00 PM 55.4 °F 44.6 °F 67% 29.50 in 6.2 mi South 18.4 mph - N/A   Scattered Clouds
9:30 PM 55.4 °F 44.6 °F 67% 29.50 in 6.2 mi South 17.3 mph - N/A   Scattered Clouds
10:00 PM 53.6 °F 44.6 °F 72% 29.50 in 6.2 mi SSE 10.4 mph - N/A   Scattered Clouds
10:30 PM 53.6 °F 42.8 °F 67% 29.50 in 6.2 mi South 10.4 mph - N/A   Scattered Clouds
11:00 PM 53.6 °F 42.8 °F 67% 29.50 in 6.2 mi SSE 12.7 mph - N/A   Scattered Clouds
11:30 PM 51.8 °F 42.8 °F 71% 29.53 in - South 9.2 mph - N/A   Clear